Cloud_Cover
100 100 100 100 100 100 100 100 79 97 42 4 0 0 0 0 0 0 0 0 0 0 10 60 66 46 44 100 98 76 28 0 0 0 0 30 100 62 4 26 94 83 56
100 100 100 100 100 100 100 95 99 28 2 2 70 95 100 94 99 100 98 60 5 3 3 2 0 0 55 100 100 100 93 15 1 0 0 0 61 100 98 51 70 100 100
100 100 100 100 100 94 29 5 54 87 9 55 100 100 27 34 29 48 91 99 70 5 5 1 0 0 32 97 85 81 95 100 26 12 0 0 0 26 100 100 87 31 100
81 56 94 86 77 69 100 100 100 100 100 69 12 4 4 5 5 4 4 3 2 6 4 0 2 0 5 54 91 100 100 100 100 87 39 19 0 0 9 100 100 98 16
80 98 100 99 99 100 99 74 59 28 56 98 100 98 80 61 10 2 0 0 2 4 0 0 5 5 5 99 82 97 95 100 100 100 100 100 96 42 0 13 100 100 100
100 100 66 70 20 20 27 93 100 100 100 100 67 39 5 1 0 1 0 0 0 0 0 5 5 5 5 49 100 100 100 100 100 100 100 100 100 100 100 23 11 100 100
100 100 100 100 100 100 100 100 100 100 100 76 5 13 5 0 0 0 0 0 1 6 84 24 5 63 88 99 100 100 100 100 100 100 100 100 100 100 100 100 100 100 100
100 100 100 100 100 100 100 84 70 6 5 5 2 0 5 5 5 5 3 5 8 5 37 89 59 30 67 52 100 100 100 100 100 100 100 100 100 100 100 100 100 90 94
100 78 36 16 28 50 29 2 1 0 0 0 1 4 5 5 4 1 2 5 5 5 5 13 5 3 5 94 100 100 100 100 100 100 100 100 100 100 100 100 100 100 100
100 97 83 98 100 3 0 0 0 4 0 4 5 5 5 5 5 5 1 1 5 58 5 5 5 3 5 89 100 100 100 100 100 100 100 100 100 100 100 100 100 100 100
100 99 45 7 5 0 0 0 5 5 29 100 92 0 0 2 5 5 5 2 4 5 5 5 5 5 1 6 100 100 100 100 100 100 100 100 100 100 100 100 100 100 100
62 41 20 21 6 5 0 5 5 83 99 16 5 0 0 0 5 5 5 5 5 4 3 5 5 5 0 5 100 100 100 100 100 100 100 100 100 100 100 100 100 100 100
93 8 5 6 5 5 17 97 100 99 17 11 4 2 1 3 4 1 5 5 5 4 2 4 5 5 0 5 100 100 99 100 100 100 100 100 100 100 100 100 100 100 100
100 100 100 100 90 98 100 100 100 81 5 5 5 5 5 5 5 5 5 5 17 5 99 5 7 5 0 5 98 100 99 100 100 100 100 100 100 100 100 100 100 100 100
89 82 12 70 100 100 100 99 81 5 2 5 5 5 5 5 5 5 5 5 7 43 100 100 100 53 0 5 54 100 100 100 94 100 100 100 100 100 100 100 100 100 100
100 98 78 100 100 100 100 60 5 5 5 5 5 5 5 5 5 18 8 5 5 100 100 99 100 100 100 68 15 87 94 100 34 100 100 100 100 100 100 100 100 100 100
90 98 100 100 100 100 98 5 5 5 5 5 5 4 3 5 11 89 88 97 19 92 100 100 72 80 100 100 100 100 100 100 100 96 100 100 100 100 100 100 100 100 100
61 100 100 100 100 37 5 5 5 5 9 5 5 5 5 0 25 100 100 91 69 100 100 68 88 90 99 100 100 100 100 100 88 80 100 97 100 100 100 100 100 100 100
100 100 100 98 30 5 5 5 5 5 5 15 5 5 5 5 39 100 100 100 100 100 100 100 100 94 86 100 100 100 100 100 100 100 93 99 100 100 100 100 100 100 100
100 100 100 100 100 5 5 5 51 5 5 5 5 5 5 5 26 100 100 100 100 100 100 100 100 95 76 98 100 100 85 97 100 97 100 87 98 98 100 100 100 100 100
97 100 100 100 61 6 11 99 100 6 5 5 5 5 5 22 63 100 100 100 100 100 100 100 97 99 100 85 57 58 83 76 98 12 28 10 83 65 40 23 96 100 100
100 100 100 47 21 6 100 100 100 5 5 5 5 5 8 5 5 97 100 100 100 100 90 78 97 100 99 99 85 44 94 93 81 8 19 9 43 90 77 68 96 100 100
100 100 100 60 5 100 100 100 56 5 7 5 5 5 5 22 22 10 100 100 100 100 89 100 90 80 97 75 96 58 41 82 90 9 5 74 5 86 100 5 10 100 100
100 100 100 98 100 100 100 100 5 5 5 5 5 5 5 5 100 63 95 100 97 80 95 100 66 32 82 100 45 70 71 57 38 40 8 88 53 13 99 55 2 93 96
100 100 100 100 100 100 98 5 5 5 5 5 5 5 25 100 100 100 100 100 100 98 20 58 41 9 5 18 32 14 55 92 44 10 5 54 11 41 84 53 5 5 5
100 100 100 100 100 100 51 7 5 5 5 5 9 20 78 100 100 100 100 100 100 23 56 8 5 7 3 3 5 5 34 100 84 6 3 5 66 89 52 22 5 5 5